Regional Weather Roundup
Issued by NWS

Home | Current Version | Previous Version | Graphics & Text | Print | Product List | Glossary On
Versions: 1 2 3 4 5 6 7 8 9 10 11 12 13 14 15 16 17 18 19 20 21 22 23 24 25 26 27 28
000
ASUS45 KSLC 241010
RWRUT

UTAH REGIONAL WEATHER ROUNDUP
NATIONAL WEATHER SERVICE SALT LAKE CITY UT
400 AM MDT WED AUG 24 2016

UTZ001>011-023>025-241100-

NORTHERN UTAH

CITY           SKY/WX    TMP DP  RH WIND       PRES   REMARKS
BRIGHAM CITY     N/A     55  26  32 NW6       30.11R
HILL AFB         N/A     59  25  26 SE5       30.13R
LOGAN            N/A     44  32  62 CALM      30.13S
OGDEN            N/A     61  32  33 N5        30.10S
PROVO AIRPORT    N/A     57  37  47 SE5       30.13R
SALT LAKE CITY   N/A     63  31  30 S5        30.10R
VERNAL         CLOUDY    56  41  57 NW3       30.16F
WENDOVER         N/A     64  19  17 NE5       30.14R
HEBER CITY       N/A     45  34  65 CALM      30.19S
WEST JORDAN      N/A     61  26  26 S3        30.13S

$$

UTZ012>022-026-027-241100-

SOUTHERN/CENTRAL UTAH

CITY           SKY/WX    TMP DP  RH WIND       PRES   REMARKS
BLANDING         N/A     53  50  89 N7        30.32F
BRYCE CANYON     N/A     47  41  80 W7        30.37F
CEDAR CITY       N/A     60  38  43 SE5       30.23S
DELTA            N/A     61  41  48 SE5       30.14F
MILFORD          N/A     61  44  53 S13       30.17S
MOAB/CYNLANDS    N/A     60  54  80 CALM      30.14F
PRICE            N/A     54  39  57 N6        30.22S
ST GEORGE        N/A     72  46  40 E3        30.11R

$$

REGIONAL REPORTS     COLORADO/ARIZONA

CITY           SKY/WX    TMP DP  RH WIND       PRES   REMARKS
CRAIG, CO      CLOUDY    50  44  80 CALM      30.24F
GRAND JUNCTION PTCLDY    63  49  60 S5        30.19S
RIFLE          CLOUDY    55  53  93 SE5       30.23F
MONTROSE       CLOUDY    55  51  86 SE7       30.26F
CORTEZ         CLOUDY    54  52  93 CALM      30.26S
PAGE, AZ         N/A     69  53  56 NW7       30.15F
GRAND CANYON     N/A     53  50  89 CALM      30.32F
KINGMAN          N/A     69  56  62 SE14      30.11F
FLAGSTAFF      CLOUDY    48  47  96 CALM      30.34S

$$

REGIONAL REPORTS    NEVADA/IDAHO/WYOMING

CITY           SKY/WX    TMP DP  RH WIND       PRES   REMARKS
LAS VEGAS, NV    N/A     81  48  31 SW6       29.95F
ELY              N/A     53  36  52 SE8       30.25R
ELKO             N/A     52  18  26 CALM      30.21R
POCATELLO, ID  CLEAR     57  19  22 S13       30.14F
BURLEY           N/A     50  32  50 NE6       30.13R
EVANSTON, WY   CLOUDY    54  21  27 S3        30.26F
ROCK SPRINGS   CLOUDY    51  19  28 NE8       30.25F

$$




USA.gov is the U.S. government's official web portal to all federal, state and local government web resources and services.